TITAN 3C TRANSTAGE DEB, 26778

Orbit data source: Space-Track

TITAN 3C TRANSTAGE DEB, 26778 is space debris in HEO originally from a launch on Tue, 21 Dec 1965 UTC launched from the Air Force Eastern Test Range (AFETR). Debris objects in space refer to the collection of defunct objects orbiting the Earth. Examples of debris include non-operational satellites, rocket bodies, and fragments generated from explosions, collisions, or faulty payload assembly.

Loading next visibility...
Identifier
26778, 1965-108AW
Orbit
HEO
Country
Flag of USUS
Related business
Manufacturer
Unknown
Mission
Spacecraft
Bus & Motor
Unknown
Mass
Unknown
Launch date (UTC)
1965-12-21 (60 years ago)
Launch vehicle
Unknown
Launch site
Air Force Eastern Test Range (AFETR)
Object type
Payload
Rocket body
Debris
Shape & HBR
Unknown shape, 0.2 m
Radar Cross Section
Medium (>0.1 m² and <1 m²)

Expand to show TLE details & history
Last TLE update: 5 days ago

TLE from 5 days ago
0 TITAN 3C TRANSTAGE DEB
1 26778U 65108AW  25292.01570213  .00000970  00000-0  14800-1 0  9999
2 26778  27.4161 171.2920 6810502  75.9627 354.8552  2.65383312106454
Epoch: 2025-10-19T00:22Z
TLE epoch observation values (Epoch: 2025-10-19T00:22:36.664Z)
Latitude
17.69517°
Longitude
175.68479°
Altitude
1,194.03 km
Speed
9.339 km/s
True Right ascension
13h 56m 18s
True Declination
17° 36' 06"
Sunlit
Object was in daylight at epoch
Visualization orbit readout
Latitude
Unknown
Longitude
Unknown
Altitude
Unknown
Speed
Unknown
Apparent Right ascension
Unknown
Apparent Declination
Unknown
Sunlit
N/A
Visualization observer readout
Local Sidereal Time
10:36:08
Azimuth
Unknown
Elevation
Unknown
Doppler factor
Unknown
Orbital elements
Apogee altitude
30,673.051 km
Perigee altitude
651.676 km
Semi-major axis
22,040.501 km
Eccentricity
0.68105
Inclination
27.4161°
RAAN
171.292°
Arg. of periapsis
75.9627°
True anomaly
324.84784°
Mean anomaly
354.8552°
Eccentric anomaly
344.28844°
Mean motion
0.6633 °/min
Orbital period
542.74 mins
BSTAR
0.0148
Loading maneuver chart data...
Computing Atmospheric mass density...

Documentation

Showing up to 5 results
|